Riverton, WY

12:06 PM MST on March 01, 2017 (GMT -0700)
Riverton Regional

Weather History for KRIW - August, 2013

Change the Weather History Date:

Thursday, August 8, 2013

  Actual Average Record
Temperature  
Mean Temperature 71 °F 72 °F  
Max Temperature 83 °F 88 °F 94 °F (2005)
Min Temperature 58 °F 56 °F 47 °F (2009)
Degree Days  
Heating Degree Days 0 0  
Month to date heating degree days 0 0  
Since 1 June heating degree days 52 131  
Since 1 July heating degree days 0 12  
Cooling Degree Days 6 7  
Month to date cooling degree days 76 62  
Year to date cooling degree days 533 357  
Since 1 June cooling degree days 520 348  
Growing Degree Days 20 (Base 50)    
Moisture  
Dew Point 42 °F    
Average Humidity 41    
Maximum Humidity 67    
Minimum Humidity 14    
Precipitation  
Precipitation 0.00 in 0.02 in 0.16 in (1998)
Month to date precipitation 0.02 0.15  
Year to date precipitation 4.05 6.40  
Snow  
Snow 0.00 in - - ()
Month to date snowfall 0.0  
Since 1 June snowfall 0.0  
Since 1 July snowfall 0.0  
Snow Depth 0.00 in    
Sea Level Pressure  
Sea Level Pressure 29.94 in    
Wind  
Wind Speed 7 mph (ENE)    
Max Wind Speed 28 mph    
Max Gust Speed 33 mph    
Visibility 10 miles    
Events Thunderstorm    
T = Trace of Precipitation, MM = Missing Value Source: NWS Daily Summary

Daily Weather History Graph

Daily Weather History Graph

Search for Another Location

Airport or City:

Trip Planner

Search our weather history database for the weather conditions in past years. The results will help you decide how hot, cold, wet, or windy it might be!

Date:

Astronomy

Aug. 08, 2013 Rise Set
Actual Time 6:12 AM MDT 8:25 PM MDT
Civil Twilight 5:40 AM MDT 8:57 PM MDT
Nautical Twilight 5:02 AM MDT 9:35 PM MDT
Astronomical Twilight 4:19 AM MDT 10:18 PM MDT
Moon 8:06 AM MDT (8/8) 9:00 PM MDT (8/8)
Length of Visible Light 15h 16m
Length of Day
14h 13m
Waxing Crescent, 3% of the Moon is Illuminated
Aug 8
Waxing Crescent
Aug 14
First Quarter
Aug 20
Full
Aug 28
Last Quarter
Sep 5
New

Hourly Weather History & Observations

Time (MDT) Temp. Dew Point Humidity Pressure Visibility Wind Dir Wind Speed Gust Speed Precip Events Conditions
12:53 AM 64.0 °F 37.0 °F 37% 29.91 in 10.0 mi NNW 6.9 mph - N/A   Clear
1:53 AM 68.0 °F 39.9 °F 36% 29.90 in 10.0 mi East 5.8 mph - N/A   Clear
2:53 AM 66.0 °F 45.0 °F 47% 29.91 in 10.0 mi East 5.8 mph - N/A   Clear
3:53 AM 64.0 °F 46.9 °F 54% 29.91 in 10.0 mi East 10.4 mph - N/A   Clear
4:53 AM 62.1 °F 48.0 °F 60% 29.91 in 10.0 mi ENE 11.5 mph - N/A   Clear
5:53 AM 59.0 °F 48.0 °F 67% 29.93 in 10.0 mi ENE 6.9 mph - N/A   Clear
6:53 AM 60.1 °F 48.0 °F 64% 29.94 in 10.0 mi NE 5.8 mph - N/A   Clear
7:53 AM 64.0 °F 48.0 °F 56% 29.95 in 10.0 mi East 4.6 mph - N/A   Clear
8:53 AM 66.0 °F 48.0 °F 52% 29.96 in 10.0 mi South 4.6 mph - N/A   Clear
9:53 AM 69.1 °F 46.9 °F 45% 29.96 in 10.0 mi Calm Calm - N/A   Clear
10:53 AM 73.0 °F 46.0 °F 38% 29.94 in 10.0 mi Variable 6.9 mph - N/A   Clear
11:53 AM 77.0 °F 46.0 °F 33% 29.93 in 10.0 mi Variable 3.5 mph - N/A   Clear
12:53 PM 77.0 °F 46.0 °F 33% 29.93 in 10.0 mi Variable 4.6 mph - N/A   Clear
1:53 PM 79.0 °F 43.0 °F 28% 29.89 in 10.0 mi Variable 3.5 mph - N/A   Clear
2:53 PM 81.0 °F 43.0 °F 26% 29.87 in 10.0 mi SSW 9.2 mph - N/A   Clear
3:53 PM 82.0 °F 39.9 °F 22% 29.86 in 10.0 mi SSW 10.4 mph - N/A   Clear
4:53 PM 82.0 °F 28.0 °F 14% 29.89 in 10.0 mi West 11.5 mph - N/A   Clear
5:12 PM 78.8 °F 35.6 °F 21% 30.10 in 10.0 mi NNW 23.0 mph 33.4 mph N/A   Clear
5:53 PM 78.1 °F 39.0 °F 25% 29.92 in 10.0 mi NW 13.8 mph 18.4 mph N/A Thunderstorm Clear
6:15 PM 78.8 °F 37.4 °F 23% 30.11 in 10.0 mi NNE 8.1 mph - N/A   Clear
6:53 PM 78.1 °F 35.1 °F 21% 29.92 in 10.0 mi NNE 8.1 mph - N/A   Clear
7:53 PM 71.1 °F 42.1 °F 35% 29.94 in 10.0 mi East 13.8 mph 19.6 mph N/A   Clear
8:53 PM 70.0 °F 41.0 °F 35% 29.96 in 10.0 mi East 5.8 mph - N/A   Clear
9:53 PM 66.9 °F 41.0 °F 39% 29.98 in 10.0 mi ENE 6.9 mph - N/A   Mostly Cloudy
10:53 PM 66.0 °F 42.1 °F 42% 29.99 in 10.0 mi Calm Calm - N/A   Mostly Cloudy
11:53 PM 62.1 °F 39.9 °F 44% 30.00 in 10.0 mi NW 4.6 mph - N/A   Clear